Home   Weather   San Andrés   Past weeks

Flag for Colombia Past Weather in San Andrés, Colombia — Yesterday and Last 2 Weeks

Now
88 °F

Scattered clouds.


Feels Like: 100 °F
Forecast: 78 / 87 °F
Wind: 9 mph from East

Location: San Andres Isla / Sesquicentenario

Current Time: Apr 26, 2017 at 1:11:54 pm

Latest Report: Apr 26, 2017 at 12:00 pm


Visibility: N/A

Pressure: 29.86 "Hg

Humidity: 70%

Dew Point: 77 °F

Location of San AndrésLocation

Past Weather in San Andrés — Graph

°F

San Andrés Temperature Yesterday

Maximum temperature yesterday: 88 °F (at 12:00 pm)
Minimum temperature yesterday: 81 °F (at 5:00 am)
Average temperature yesterday: 84 °F

High & Low Weather Summary for the Past Weeks

 TemperatureHumidityPressure
High90 °F (Apr 22, 11:00 am)94% (Apr 16, 3:00 pm)29.95 "Hg (Apr 16, 3:00 pm)
Low72 °F (Apr 24, 4:00 pm)62% (Apr 11, 2:00 pm)29.76 "Hg (Apr 21, 4:00 pm)
Average83 °F78%29.86 "Hg
* Reported Apr 11 12:00 pm — Apr 26 12:00 pm, San Andrés, Weather by CustomWeather, © 2017

Note: Actual official high and low records may vary slightly from our data, if they occured in-between our weather recording intervals... More about our weather records

Advertising

San Andrés Weather History for the Previous 24 Hours

Scroll right to see more
 ConditionsComfort  
Time TempWeatherWind HumidityBarometerVisibility
12:00 pm
Wed, Apr 26
88 °FScattered clouds.9 mph70%29.86 "HgN/A
10:00 am88 °FScattered clouds.8 mph66%29.87 "HgN/A
9:00 am86 °FPartly sunny.7 mph75%29.85 "HgN/A
8:00 am84 °FPartly sunny.6 mph74%29.84 "HgN/A
7:00 am82 °FPartly sunny.5 mph79%29.82 "HgN/A
6:00 am81 °FPassing clouds.3 mph79%29.81 "HgN/A
5:00 am82 °FPassing clouds.3 mph79%29.80 "HgN/A
3:00 am82 °FPassing clouds.3 mph79%29.80 "HgN/A
1:00 am82 °FPartly cloudy.2 mph84%29.84 "HgN/A
12:00 am82 °FPassing clouds.3 mph84%29.87 "HgN/A
11:00 pm
Tue, Apr 25
82 °FPassing clouds.3 mph79%29.87 "HgN/A
10:00 pm82 °FPassing clouds.5 mph79%29.86 "HgN/A
9:00 pm82 °FPassing clouds.3 mph79%29.85 "HgN/A
8:00 pm82 °FPassing clouds.3 mph79%29.84 "HgN/A
7:00 pm84 °FPassing clouds.3 mph74%29.82 "HgN/A
6:00 pm86 °FPassing clouds.5 mph66%29.81 "HgN/A
5:00 pm86 °FPassing clouds.5 mph66%29.80 "HgN/A
4:00 pm86 °FPassing clouds.6 mph70%29.82 "HgN/A
3:00 pm86 °FPassing clouds.7 mph70%29.83 "HgN/A
2:00 pm88 °FPassing clouds.7 mph70%29.86 "HgN/A
1:00 pm86 °FScattered clouds.8 mph70%29.88 "HgN/A
Weather by CustomWeather, © 2017

See weather overviewHow to use our weather pages